QPF
0.00 0.00 0.00 0.00 0.00 0.00 0.00 0.00 0.00 0.00 0.00 0.00 0.00 0.00 0.00 0.00 0.00 0.00 0.00 0.00 0.00 0.00 0.00 0.00 0.00 0.00 0.00 0.00 0.00 0.00 0.00 0.00 0.00 0.00 0.00 0.00 0.00 0.00 0.00 0.00 0.00 0.00
0.00 0.00 0.00 0.00 0.00 0.00 0.00 0.00 0.00 0.00 0.00 0.00 0.00 0.00 0.00 0.00 0.00 0.00 0.00 0.00 0.00 0.00 0.00 0.00 0.00 0.00 0.00 0.00 0.00 0.00 0.00 0.00 0.00 0.00 0.00 0.00 0.00 0.00 0.00 0.00 0.00 0.00
0.01 0.02 0.00 0.00 0.00 0.00 0.00 0.00 0.00 0.00 0.00 0.00 0.00 0.00 0.00 0.00 0.00 0.00 0.00 0.00 0.00 0.00 0.00 0.00 0.00 0.00 0.00 0.00 0.00 0.00 0.00 0.00 0.00 0.00 0.00 0.00 0.00 0.00 0.00 0.00 0.00 0.00
0.03 0.02 0.00 0.00 0.00 0.00 0.00 0.00 0.00 0.00 0.00 0.00 0.00 0.00 0.00 0.00 0.00 0.00 0.00 0.00 0.00 0.00 0.00 0.00 0.00 0.00 0.00 0.00 0.00 0.00 0.00 0.00 0.00 0.00 0.00 0.00 0.00 0.00 0.00 0.00 0.00 0.00
0.02 0.00 0.00 0.00 0.00 0.00 0.00 0.00 0.00 0.00 0.00 0.00 0.00 0.00 0.00 0.00 0.00 0.00 0.00 0.00 0.00 0.00 0.00 0.00 0.00 0.00 0.00 0.00 0.00 0.00 0.00 0.00 0.00 0.00 0.00 0.00 0.00 0.00 0.00 0.00 0.00 0.00
0.01 0.00 0.00 0.00 0.00 0.00 0.00 0.00 0.00 0.00 0.00 0.00 0.00 0.00 0.00 0.00 0.00 0.00 0.00 0.00 0.00 0.00 0.00 0.00 0.00 0.00 0.00 0.00 0.00 0.00 0.00 0.00 0.00 0.00 0.00 0.00 0.00 0.00 0.00 0.00 0.00 0.00
0.00 0.00 0.00 0.00 0.00 0.00 0.00 0.00 0.00 0.00 0.00 0.00 0.00 0.00 0.00 0.00 0.00 0.00 0.00 0.00 0.00 0.00 0.00 0.00 0.00 0.00 0.00 0.00 0.00 0.00 0.00 0.00 0.00 0.00 0.00 0.00 0.00 0.00 0.00 0.00 0.00 0.00
0.01 0.06 0.00 0.00 0.00 0.00 0.00 0.00 0.00 0.00 0.00 0.00 0.00 0.00 0.00 0.00 0.00 0.00 0.00 0.00 0.00 0.00 0.00 0.00 0.00 0.00 0.00 0.00 0.00 0.00 0.00 0.00 0.00 0.00 0.00 0.00 0.00 0.00 0.00 0.00 0.00 0.00
0.02 0.03 0.01 0.00 0.00 0.00 0.00 0.00 0.00 0.00 0.00 0.00 0.00 0.00 0.00 0.00 -0.00 0.00 0.00 0.00 0.00 0.00 0.00 0.00 0.00 0.00 -0.00 0.00 0.00 0.00 0.00 0.00 0.00 0.00 0.00 0.00 0.00 0.00 0.00 0.00 0.00 0.00
0.00 0.00 0.00 0.00 0.00 0.00 0.00 0.00 0.00 0.00 0.00 0.00 0.00 0.00 0.00 0.00 0.00 0.00 0.00 0.00 0.00 0.00 0.00 0.00 0.00 0.00 0.00 0.00 0.00 0.00 0.00 0.00 0.00 0.00 0.00 0.00 0.00 0.00 0.00 0.00 0.00 0.00
0.19 0.10 0.00 0.01 0.00 0.01 0.00 0.00 0.00 0.00 0.00 0.00 0.00 0.00 0.00 0.00 0.00 0.00 0.00 0.00 0.00 0.00 0.00 0.00 0.00 0.00 0.00 0.00 0.00 0.00 0.00 0.00 0.00 0.00 0.00 0.00 0.00 0.00 0.00 0.00 0.00 0.00
0.10 0.02 0.07 0.11 0.02 0.02 0.00 0.01 0.05 0.08 0.13 0.06 0.03 0.00 0.00 0.00 0.00 0.00 0.00 0.00 0.00 -0.00 0.00 0.00 0.00 0.00 0.00 0.00 0.00 0.00 0.00 0.00 0.00 0.00 0.00 0.00 0.00 0.00 0.00 0.00 0.00 0.00
0.00 0.02 0.16 0.03 0.06 0.01 0.00 0.01 0.12 0.08 0.02 0.04 0.09 0.08 0.01 0.00 0.00 0.00 -0.00 0.00 0.00 0.00 0.00 0.00 0.00 0.00 0.00 0.00 -0.00 0.00 0.00 0.00 0.00 0.00 0.01 0.00 0.00 0.00 0.00 0.00 0.00 0.00
0.03 0.07 0.06 0.01 0.03 0.05 0.18 0.28 0.29 0.18 0.27 0.31 0.44 0.20 0.19 0.16 0.20 0.13 0.31 0.14 0.14 0.20 0.17 0.12 0.04 0.00 0.00 0.00 -0.00 0.00 0.00 0.00 0.01 0.01 0.00 0.00 0.00 0.00 0.00 0.00 0.00 0.00
0.03 0.07 0.10 0.20 0.21 0.16 0.13 0.15 0.18 0.40 0.34 0.26 0.19 0.20 0.19 0.20 0.20 0.25 0.17 0.25 0.17 0.20 0.08 0.04 0.02 0.01 0.00 0.00 0.00 -0.00 0.00 0.00 -0.00 0.00 0.00 0.00 0.00 0.00 0.00 0.00 0.00 0.00
0.36 0.38 0.24 0.20 0.19 0.25 0.15 0.13 0.13 0.10 0.06 0.05 0.07 0.09 0.15 0.23 0.32 0.32 0.20 0.14 0.12 0.05 0.02 0.01 0.00 0.00 0.00 -0.00 0.00 0.00 0.00 -0.00 0.00 0.00 0.00 0.00 0.00 0.00 0.00 0.00 0.00 -0.00
0.00 0.00 0.00 0.00 0.00 0.00 0.01 0.02 0.03 0.03 0.02 0.01 0.03 0.02 0.01 0.01 0.01 0.00 0.00 0.00 0.00 0.00 0.00 0.00 -0.00 -0.00 0.00 -0.00 0.00 0.00 0.00 0.00 0.00 0.00 -0.00 0.00 0.00 0.00 0.00 0.00 0.00 0.00
0.00 0.00 0.00 0.00 0.00 0.00 0.00 0.00 0.00 0.00 0.02 0.04 0.01 0.00 0.00 0.00 0.00 0.00 0.00 0.00 0.00 0.00 0.00 0.00 0.00 0.00 0.00 0.00 0.00 0.00 0.00 0.00 -0.00 0.00 0.00 -0.00 0.00 0.00 0.00 0.00 0.00 0.00
0.00 0.00 0.00 0.00 0.00 0.00 0.00 0.00 0.00 0.00 0.00 0.00 0.00 0.00 0.00 0.00 0.00 0.00 0.00 0.00 0.00 0.00 0.00 0.00 0.00 0.00 0.00 0.00 0.00 0.00 0.00 0.00 0.00 0.00 0.00 0.00 0.00 0.00 0.00 0.00 0.00 0.00
0.00 0.00 0.00 0.00 0.00 0.00 0.00 0.00 0.00 0.00 0.00 0.00 0.00 0.00 0.00 0.00 0.00 0.00 0.00 0.00 0.00 0.00 0.00 0.00 0.00 0.00 0.00 0.00 0.00 0.00 0.00 0.00 0.00 -0.00 0.00 0.00 0.00 0.00 0.00 0.00 0.02 0.01
0.00 0.00 0.00 0.00 0.00 0.00 0.00 0.00 0.00 0.00 0.00 0.00 0.00 0.00 0.00 0.00 0.00 0.00 0.00 0.00 0.00 0.00 0.00 0.00 0.00 0.00 0.00 0.00 0.00 0.00 0.00 0.00 -0.00 0.00 -0.00 0.00 0.00 0.00 0.00 0.01 0.10 0.00
0.00 0.00 0.00 0.00 0.00 0.00 0.00 0.00 0.00 0.00 0.00 0.00 0.00 0.00 0.00 0.00 0.00 0.00 0.00 0.00 0.00 0.00 0.00 0.00 0.00 0.00 0.00 0.00 0.00 0.00 0.00 0.00 0.00 0.00 0.00 -0.00 -0.00 0.00 0.00 -0.00 0.00 0.00
0.00 0.00 0.00 0.00 0.00 0.00 0.00 0.00 0.00 0.00 0.00 0.00 0.00 0.00 0.00 0.00 0.00 0.00 0.00 0.00 0.00 0.00 0.00 0.00 0.00 0.00 0.00 0.00 0.00 0.00 0.00 0.00 0.00 -0.00 -0.00 0.00 0.00 0.00 0.00 0.00 0.00 0.00
0.01 0.00 0.00 0.00 0.00 0.00 0.00 0.00 0.00 0.00 0.00 0.00 0.00 0.00 0.00 0.00 0.00 0.00 0.00 0.00 0.00 0.00 0.00 0.00 0.00 0.00 0.00 0.00 0.00 0.00 0.00 0.00 -0.00 0.00 -0.00 -0.00 0.00 -0.00 -0.00 0.00 0.00 -0.00
0.00 0.00 0.00 0.00 0.00 0.00 0.00 0.00 0.00 0.00 0.00 0.00 0.00 0.00 0.00 0.00 0.00 0.00 0.00 0.00 0.00 0.00 0.00 0.00 0.00 0.00 0.00 0.00 0.00 0.00 0.00 -0.00 0.00 0.00 0.00 0.00 0.00 0.00 0.00 0.00 0.00 0.00
0.00 0.00 0.00 0.00 0.00 0.00 0.00 0.00 0.00 0.00 0.00 0.00 0.00 0.00 0.00 0.00 0.00 0.00 0.00 0.00 0.00 0.00 0.00 0.00 0.00 0.00 0.00 0.00 0.00 0.00 0.00 0.00 -0.00 0.00 0.00 0.00 0.00 0.00 0.00 -0.00 0.00 0.00
MSLP
1016.35 1016.59 1016.79 1017.07 1017.19 1017.27 1017.47 1017.83 1018.03 1017.99 1018.11 1018.31 1018.35 1018.47 1018.43 1018.43 1018.55 1018.59 1018.59 1018.71 1018.79 1018.87 1019.03 1019.15 1019.23 1019.35 1019.43 1019.51 1019.59 1019.67 1019.83 1019.99 1020.23 1020.31 1020.27 1020.39 1020.51 1020.55 1020.67 1020.83 1020.91 1020.95
1016.71 1016.63 1016.87 1017.03 1017.23 1017.27 1017.31 1017.47 1017.75 1017.83 1017.99 1018.19 1018.35 1018.47 1018.55 1018.55 1018.63 1018.59 1018.63 1018.71 1018.79 1018.87 1018.99 1019.11 1019.23 1019.31 1019.43 1019.55 1019.63 1019.71 1019.95 1020.03 1020.19 1020.39 1020.31 1020.39 1020.59 1020.59 1020.75 1020.87 1021.03 1021.27
1016.83 1017.03 1016.99 1017.11 1017.19 1017.23 1017.27 1017.47 1017.63 1017.79 1017.87 1018.07 1018.31 1018.51 1018.51 1018.59 1018.55 1018.59 1018.59 1018.67 1018.79 1018.91 1019.03 1019.11 1019.27 1019.39 1019.51 1019.67 1019.75 1019.83 1019.95 1020.11 1020.23 1020.43 1020.39 1020.51 1020.63 1020.67 1020.87 1020.99 1021.07 1021.11
1017.15 1017.47 1017.19 1017.07 1017.07 1017.07 1017.19 1017.39 1017.63 1017.75 1017.87 1018.03 1018.15 1018.31 1018.55 1018.63 1018.63 1018.63 1018.59 1018.63 1018.75 1018.91 1019.03 1019.15 1019.19 1019.39 1019.47 1019.63 1019.75 1019.87 1019.99 1020.11 1020.27 1020.47 1020.55 1020.79 1020.83 1020.87 1021.03 1021.07 1021.15 1021.27
1016.35 1016.99 1017.19 1017.19 1017.11 1017.07 1017.15 1017.27 1017.47 1017.67 1017.71 1017.79 1018.07 1018.35 1018.47 1018.63 1018.79 1018.75 1018.67 1018.71 1018.71 1018.87 1019.03 1019.07 1019.23 1019.31 1019.47 1019.59 1019.63 1019.79 1019.95 1020.07 1020.27 1020.35 1020.43 1020.67 1020.91 1020.99 1021.15 1021.15 1021.19 1021.23
1015.95 1016.43 1016.95 1017.23 1017.15 1017.23 1017.15 1017.11 1017.31 1017.51 1017.71 1017.91 1018.03 1018.31 1018.51 1018.71 1018.95 1019.03 1018.99 1018.91 1018.87 1018.91 1019.07 1019.23 1019.31 1019.47 1019.59 1019.67 1019.75 1019.75 1019.91 1020.03 1020.23 1020.27 1020.35 1020.51 1020.75 1020.99 1021.07 1021.11 1021.19 1021.27
1015.83 1016.11 1016.55 1017.03 1017.31 1017.19 1017.07 1016.95 1017.23 1017.51 1017.75 1017.83 1018.15 1018.35 1018.55 1018.79 1018.95 1019.11 1019.19 1019.23 1019.19 1019.11 1019.15 1019.23 1019.35 1019.51 1019.59 1019.59 1019.63 1019.71 1019.91 1019.95 1020.15 1020.19 1020.19 1020.43 1020.59 1020.83 1021.03 1021.07 1021.07 1021.15
1016.31 1016.43 1016.35 1016.83 1017.19 1017.35 1017.31 1017.03 1017.07 1017.47 1017.75 1018.07 1018.19 1018.31 1018.51 1018.67 1018.91 1019.07 1019.27 1019.39 1019.39 1019.35 1019.31 1019.31 1019.31 1019.35 1019.55 1019.59 1019.55 1019.67 1019.79 1019.99 1020.03 1020.11 1020.11 1020.27 1020.43 1020.47 1020.71 1020.87 1020.91 1021.03
1016.51 1017.27 1017.23 1016.99 1017.27 1017.39 1017.47 1017.47 1017.43 1017.31 1017.43 1017.87 1018.15 1018.31 1018.55 1018.67 1018.83 1018.99 1019.19 1019.39 1019.51 1019.51 1019.51 1019.51 1019.55 1019.55 1019.71 1019.75 1019.79 1019.87 1019.99 1020.19 1020.23 1020.07 1019.99 1020.11 1020.23 1020.27 1020.43 1020.71 1020.79 1020.87
1016.03 1016.39 1016.67 1016.91 1017.11 1017.11 1017.07 1017.19 1017.31 1017.51 1017.75 1017.75 1017.87 1018.23 1018.51 1018.79 1018.95 1019.15 1019.35 1019.47 1019.55 1019.59 1019.59 1019.55 1019.63 1019.71 1019.75 1019.83 1019.79 1019.83 1019.95 1020.07 1020.27 1020.39 1020.31 1020.15 1020.03 1020.19 1020.39 1020.59 1020.59 1020.75
1016.11 1016.03 1016.23 1016.63 1016.87 1017.11 1017.19 1017.43 1017.67 1017.95 1018.11 1018.23 1018.23 1018.31 1018.55 1018.71 1018.91 1019.11 1019.35 1019.59 1019.63 1019.55 1019.55 1019.55 1019.47 1019.51 1019.59 1019.71 1019.91 1020.03 1019.95 1019.99 1020.11 1020.23 1020.31 1020.35 1020.27 1020.11 1020.23 1020.35 1020.51 1020.51
1016.63 1016.75 1016.67 1016.83 1017.19 1017.47 1017.47 1017.51 1017.59 1017.67 1018.11 1018.71 1018.95 1018.79 1018.71 1018.91 1019.15 1019.47 1019.63 1019.75 1019.79 1019.79 1019.87 1019.87 1019.75 1019.63 1019.55 1019.67 1019.79 1019.91 1019.99 1020.07 1020.19 1020.31 1020.35 1020.35 1020.43 1020.47 1020.27 1020.31 1020.35 1020.39
1016.15 1016.31 1016.39 1016.71 1017.23 1017.75 1017.79 1017.55 1017.59 1017.71 1018.07 1018.43 1018.71 1018.95 1019.11 1019.11 1019.15 1019.35 1019.75 1020.11 1020.23 1020.31 1020.19 1020.15 1020.11 1019.91 1019.79 1019.71 1019.71 1019.79 1019.91 1019.99 1020.11 1020.23 1020.35 1020.47 1020.51 1020.63 1020.63 1020.43 1020.31 1020.31
1015.91 1016.27 1016.55 1016.67 1016.79 1016.91 1017.23 1017.67 1017.95 1018.07 1018.07 1018.27 1018.83 1019.23 1019.23 1019.19 1019.19 1019.11 1019.27 1019.59 1020.03 1020.43 1020.59 1020.55 1020.43 1020.07 1019.83 1019.75 1019.71 1019.75 1019.83 1019.91 1020.03 1020.15 1020.19 1020.27 1020.35 1020.47 1020.63 1020.59 1020.35 1020.23
1016.03 1016.55 1017.03 1017.23 1017.35 1016.99 1016.59 1016.71 1017.23 1017.95 1018.79 1018.87 1018.55 1018.91 1019.19 1019.15 1019.51 1019.63 1019.91 1019.91 1019.95 1020.23 1020.15 1020.15 1020.15 1020.03 1019.91 1019.83 1019.79 1019.83 1019.91 1019.83 1019.91 1019.99 1020.03 1020.03 1020.07 1020.15 1020.23 1020.31 1020.39 1020.27
1015.87 1015.47 1015.71 1016.35 1016.87 1017.27 1016.95 1016.55 1016.67 1016.99 1017.71 1018.35 1018.31 1018.39 1018.87 1019.15 1019.43 1019.63 1019.91 1020.07 1020.35 1020.31 1020.03 1019.91 1019.91 1019.99 1019.91 1019.91 1020.03 1020.03 1020.03 1020.03 1020.03 1019.99 1019.99 1020.03 1020.07 1020.11 1020.19 1020.27 1020.15 1020.11
1015.67 1015.67 1015.47 1015.59 1016.03 1016.35 1016.43 1016.55 1017.03 1017.35 1017.67 1018.11 1018.39 1018.51 1018.47 1018.71 1018.87 1019.07 1019.31 1019.55 1019.71 1019.71 1019.67 1019.67 1019.83 1019.99 1020.11 1020.11 1019.95 1019.87 1019.83 1019.79 1019.75 1019.75 1019.83 1019.87 1019.87 1019.87 1019.83 1019.79 1019.91 1019.99
1015.75 1015.75 1015.67 1015.83 1016.11 1016.31 1016.51 1016.63 1016.95 1017.31 1017.51 1017.59 1017.75 1017.99 1018.19 1018.47 1018.79 1018.99 1019.19 1019.43 1019.55 1019.55 1019.55 1019.47 1019.59 1019.87 1019.95 1019.83 1019.75 1019.67 1019.71 1019.63 1019.63 1019.59 1019.55 1019.59 1019.63 1019.59 1019.59 1019.59 1019.55 1019.71
1015.83 1015.83 1016.03 1016.23 1016.35 1016.47 1016.71 1016.91 1016.91 1017.27 1017.43 1017.47 1017.47 1017.75 1018.23 1018.55 1018.75 1019.03 1019.15 1019.23 1019.35 1019.31 1019.23 1019.35 1019.47 1019.59 1019.59 1019.63 1019.63 1019.55 1019.47 1019.51 1019.43 1019.51 1019.55 1019.47 1019.47 1019.43 1019.39 1019.35 1019.47 1019.67
1016.19 1016.27 1016.35 1016.35 1016.47 1016.67 1016.79 1016.83 1017.11 1017.35 1017.43 1017.47 1017.59 1017.99 1018.31 1018.51 1018.75 1018.91 1018.99 1019.07 1019.03 1018.99 1019.15 1019.39 1019.47 1019.71 1019.87 1019.71 1019.39 1019.19 1019.19 1019.31 1019.35 1019.47 1019.51 1019.47 1019.39 1019.35 1019.31 1019.35 1019.47 1019.63
1016.15 1016.27 1016.31 1016.47 1016.67 1016.83 1016.87 1017.07 1017.27 1017.51 1017.55 1017.59 1017.71 1017.79 1017.91 1018.07 1018.35 1018.59 1018.63 1018.63 1018.79 1019.07 1019.27 1019.55 1019.63 1019.67 1019.39 1019.15 1019.11 1019.15 1019.27 1019.43 1019.47 1019.51 1019.47 1019.43 1019.39 1019.35 1019.35 1019.35 1019.55 1019.71
1015.91 1016.03 1016.23 1016.35 1016.55 1016.59 1016.67 1016.91 1017.15 1017.31 1017.35 1017.67 1017.87 1018.03 1018.15 1018.15 1018.27 1018.27 1018.31 1018.75 1019.07 1019.19 1019.19 1019.11 1019.43 1019.55 1019.27 1019.15 1019.15 1019.19 1019.39 1019.51 1019.63 1019.59 1019.63 1019.67 1019.67 1019.75 1019.67 1019.67 1019.67 1019.75
1015.71 1015.79 1015.91 1016.15 1016.31 1016.35 1016.47 1016.67 1016.87 1017.07 1017.23 1017.47 1017.43 1017.59 1017.59 1017.67 1017.67 1017.87 1018.15 1018.23 1018.51 1018.71 1018.59 1018.75 1018.87 1019.19 1019.35 1019.27 1019.07 1019.23 1019.31 1019.59 1019.71 1019.87 1019.99 1020.03 1020.27 1020.35 1020.31 1020.19 1020.07 1019.99
1016.11 1015.67 1015.75 1015.95 1016.07 1016.15 1016.31 1016.55 1016.79 1017.03 1017.07 1017.31 1017.15 1017.35 1017.47 1017.71 1018.07 1018.35 1018.87 1019.07 1018.87 1018.75 1018.87 1018.47 1018.75 1019.39 1019.51 1019.39 1019.23 1019.27 1019.23 1019.43 1019.71 1019.83 1020.15 1020.31 1020.47 1020.71 1020.75 1020.67 1020.59 1020.43
1016.35 1016.43 1015.95 1015.79 1015.95 1016.03 1016.19 1016.39 1016.47 1016.75 1017.11 1017.31 1017.23 1017.35 1017.63 1017.91 1018.07 1017.99 1018.71 1019.19 1019.47 1019.51 1019.75 1019.63 1019.87 1020.03 1020.03 1019.91 1019.59 1019.51 1019.55 1019.75 1019.79 1019.91 1020.03 1020.35 1020.43 1020.67 1021.03 1021.03 1021.03 1021.07
1016.11 1016.11 1016.47 1016.43 1015.87 1015.95 1016.11 1016.15 1016.47 1016.67 1016.87 1017.03 1017.39 1017.55 1017.79 1018.27 1018.43 1018.59 1018.75 1019.47 1019.79 1019.79 1019.95 1020.03 1019.95 1020.07 1020.19 1020.07 1019.95 1019.87 1019.79 1019.87 1019.99 1019.79 1019.95 1020.31 1020.55 1020.55 1020.67 1021.27 1021.43 1021.47
Thickness
5606 5605 5603 5600 5598 5597 5596 5593 5592 5592 5592 5590 5589 5588 5588 5589 5588 5588 5588 5588 5587 5587 5586 5585 5585 5584 5583 5583 5582 5581 5580 5579 5577 5576 5576 5575 5573 5573 5572 5570 5569 5569
5601 5601 5600 5598 5596 5595 5595 5593 5591 5591 5591 5589 5588 5587 5586 5586 5586 5586 5586 5586 5585 5585 5585 5584 5583 5583 5582 5581 5580 5579 5578 5577 5575 5574 5574 5573 5572 5571 5570 5569 5568 5567
5597 5596 5596 5595 5594 5594 5593 5592 5590 5590 5590 5589 5587 5586 5585 5585 5584 5584 5584 5584 5583 5583 5583 5583 5582 5581 5580 5579 5578 5577 5576 5575 5574 5573 5572 5571 5570 5569 5568 5567 5566 5565
5592 5589 5589 5591 5592 5592 5592 5591 5589 5589 5589 5588 5587 5586 5584 5583 5582 5582 5583 5583 5582 5581 5581 5581 5580 5579 5579 5577 5576 5575 5574 5574 5572 5571 5571 5569 5568 5567 5566 5565 5565 5564
5594 5588 5586 5587 5589 5590 5590 5590 5589 5588 5588 5588 5587 5585 5584 5582 5580 5580 5580 5581 5581 5580 5579 5579 5578 5577 5577 5576 5575 5574 5573 5572 5570 5569 5569 5567 5566 5565 5564 5563 5563 5562
5595 5590 5585 5584 5585 5587 5588 5589 5588 5586 5586 5585 5584 5583 5581 5580 5578 5577 5577 5577 5578 5578 5577 5576 5576 5575 5574 5574 5574 5573 5572 5571 5569 5568 5568 5566 5565 5563 5562 5562 5562 5561
5592 5589 5586 5582 5581 5583 5585 5587 5586 5584 5582 5582 5581 5580 5578 5577 5575 5575 5574 5574 5574 5574 5574 5574 5573 5573 5572 5572 5572 5572 5570 5570 5568 5568 5568 5565 5565 5563 5561 5561 5561 5560
5585 5584 5583 5581 5579 5579 5581 5583 5583 5582 5580 5578 5577 5576 5575 5575 5573 5572 5571 5570 5570 5571 5571 5571 5571 5571 5570 5570 5570 5569 5568 5568 5567 5567 5567 5565 5564 5564 5562 5561 5560 5559
5584 5579 5578 5579 5578 5577 5578 5579 5580 5580 5579 5577 5575 5573 5571 5571 5571 5570 5569 5568 5566 5567 5567 5567 5567 5567 5566 5566 5566 5566 5565 5565 5564 5564 5565 5565 5564 5564 5562 5561 5559 5559
5585 5581 5579 5579 5578 5577 5578 5577 5576 5575 5575 5574 5573 5571 5568 5567 5567 5566 5566 5564 5563 5563 5563 5564 5564 5563 5563 5563 5563 5563 5563 5563 5562 5561 5562 5563 5563 5563 5562 5560 5559 5558
5580 5579 5578 5577 5575 5574 5573 5573 5572 5571 5569 5568 5568 5568 5566 5566 5564 5563 5562 5561 5560 5560 5560 5560 5561 5561 5561 5561 5560 5560 5560 5560 5560 5559 5559 5559 5560 5560 5560 5559 5558 5558
5575 5574 5574 5573 5570 5568 5568 5568 5568 5567 5565 5563 5562 5562 5561 5560 5560 5558 5556 5554 5555 5555 5555 5556 5557 5558 5558 5558 5557 5557 5557 5557 5556 5556 5556 5556 5556 5556 5556 5556 5556 5556
5575 5573 5572 5571 5568 5564 5565 5565 5565 5565 5564 5560 5558 5556 5555 5555 5556 5555 5553 5550 5549 5548 5548 5549 5549 5551 5553 5554 5554 5554 5554 5554 5553 5552 5552 5552 5551 5551 5551 5552 5553 5554
5574 5570 5568 5566 5565 5565 5566 5565 5562 5560 5558 5557 5555 5552 5551 5552 5552 5553 5552 5550 5548 5545 5543 5544 5544 5547 5549 5550 5551 5551 5551 5551 5550 5550 5549 5549 5549 5549 5548 5548 5550 5551
5570 5567 5563 5560 5558 5561 5565 5565 5563 5559 5553 5552 5552 5550 5549 5549 5547 5546 5546 5545 5544 5543 5542 5543 5543 5544 5546 5547 5547 5547 5547 5547 5547 5547 5547 5546 5546 5546 5545 5545 5546 5548
5567 5567 5566 5563 5559 5559 5562 5564 5563 5560 5554 5550 5550 5549 5546 5545 5543 5542 5542 5541 5539 5539 5540 5541 5540 5541 5541 5542 5543 5543 5543 5544 5544 5544 5544 5543 5543 5542 5542 5542 5542 5543
5564 5565 5566 5565 5562 5559 5560 5561 5558 5556 5553 5549 5548 5547 5545 5543 5540 5539 5539 5539 5537 5537 5538 5538 5537 5536 5536 5536 5538 5539 5540 5540 5540 5540 5540 5539 5539 5539 5538 5538 5538 5538
5559 5560 5560 5559 5558 5555 5555 5555 5553 5551 5550 5548 5547 5546 5544 5541 5538 5536 5535 5535 5534 5534 5534 5535 5534 5533 5532 5533 5534 5535 5535 5536 5536 5536 5536 5535 5535 5535 5535 5535 5535 5534
5553 5553 5553 5552 5552 5550 5549 5548 5547 5545 5544 5545 5545 5543 5540 5537 5534 5532 5531 5530 5530 5531 5531 5531 5530 5528 5528 5528 5528 5530 5531 5531 5531 5531 5531 5531 5531 5530 5530 5530 5530 5528
5545 5545 5545 5545 5545 5544 5543 5542 5541 5539 5538 5538 5538 5537 5534 5532 5530 5528 5527 5527 5527 5527 5526 5525 5523 5522 5522 5523 5524 5525 5525 5525 5525 5525 5525 5525 5525 5525 5525 5524 5523 5522
5538 5537 5537 5537 5537 5536 5536 5536 5534 5533 5532 5531 5530 5530 5529 5528 5527 5525 5525 5524 5523 5522 5520 5518 5517 5517 5518 5518 5519 5519 5519 5518 5518 5518 5518 5519 5519 5519 5519 5518 5517 5516
5533 5532 5531 5530 5530 5529 5529 5529 5528 5527 5526 5525 5525 5525 5525 5524 5524 5523 5522 5520 5518 5516 5516 5515 5513 5513 5513 5514 5513 5513 5512 5511 5510 5510 5510 5510 5510 5510 5510 5510 5510 5509
5527 5528 5527 5526 5525 5525 5525 5524 5522 5522 5521 5520 5520 5520 5520 5520 5519 5517 5516 5515 5514 5513 5513 5513 5511 5508 5507 5508 5508 5508 5507 5505 5504 5503 5502 5501 5501 5500 5500 5501 5501 5500
5519 5521 5522 5522 5521 5520 5519 5518 5517 5516 5515 5514 5515 5515 5513 5512 5511 5510 5508 5506 5507 5506 5506 5506 5505 5502 5500 5501 5501 5501 5501 5499 5498 5497 5495 5494 5493 5492 5492 5492 5492 5492
5510 5511 5513 5514 5516 5515 5515 5513 5512 5510 5508 5507 5507 5507 5506 5504 5503 5503 5501 5498 5497 5496 5496 5496 5495 5493 5492 5493 5493 5493 5493 5492 5491 5490 5489 5487 5486 5484 5483 5482 5482 5481
5503 5503 5504 5505 5507 5509 5508 5507 5506 5504 5503 5502 5501 5499 5498 5496 5495 5494 5492 5489 5487 5487 5486 5486 5486 5484 5484 5484 5485 5485 5485 5484 5484 5484 5483 5480 5478 5478 5476 5473 5472 5471